Regional Weather Roundup
Issued by NWS Newport/Morehead, NC

Current Version | Previous Version | Text Only | Print | Product List | Glossary On
Versions: 1 2 3 4 5 6 7 8 9 10 11 12 13 14 15 16 17 18 19 20 21 22 23 24 25 26 27 28 29 30 31 32 33 34 35 36 37 38 39 40 41 42 43 44 45 46 47 48 49 50
000 ASUS42 KMHX 241325 RWRMHX WEATHER ROUNDUP FOR EASTERN NORTH CAROLINA NATIONAL WEATHER SERVICE NEWPORT/MOREHEAD CITY NC 900 AM EDT SUN MAY 24 2015 NOTE: "FAIR" INDICATES FEW OR NO CLOUDS BELOW 12,000 FEET WITH NO SIGNIFICANT WEATHER AND/OR OBSTRUCTIONS TO VISIBILITY NCZ015>017-031-032-045>047-102-103-241400- NORTH COAST CITY SKY/WX TMP DP RH WIND PRES REMARKS EDENTON SUNNY 70 59 68 S5 30.43S ELIZABETH CITY SUNNY 69 55 60 SE7 30.43S KITTY HAWK SUNNY 67 54 64 E5 30.43R MANTEO SUNNY 68 50 52 E7 30.44R $$ NCZ045>047-081-094-103-104-241400- CENTRAL COAST CITY SKY/WX TMP DP RH WIND PRES REMARKS FRISCO SUNNY 72 58 61 NE5 30.43R SWANQUARTER N/A 73 N/A N/A E5 30.39S $$ NCZ095-097-098-100-101-241400- SOUTHERN COAST CITY SKY/WX TMP DP RH WIND PRES REMARKS BEAUFORT SUNNY 74 60 61 CALM 30.41S CEDAR ISLAND N/A 73 N/A N/A NE3 30.47S JACKSONVILLE SUNNY 70 62 76 E3 30.41S PINEY ISLAND SUNNY N/A N/A N/A E7 30.42R WILMINGTON SUNNY 75 63 66 NE5 30.41R $$ NCZ011>013-027>030-043-044-078>080-089-090>093-098-241400- COASTAL PLAIN CITY SKY/WX TMP DP RH WIND PRES REMARKS AHOSKIE SUNNY 66 58 76 S5 30.43F CLINTON SUNNY 70 62 76 CALM 30.43S ELIZABETHTOWN SUNNY 70 62 77 CALM 30.41F GOLDSBORO NOT AVBL GREENVILLE SUNNY 68 61 77 CALM 30.42S HAVELOCK SUNNY 73 63 70 E3 30.43S KENANSVILLE SUNNY 69 61 76 CALM 30.44R KINSTON SUNNY 70 61 73 E5 30.43F NEW BERN SUNNY 72 62 71 E6 30.43S RICHLANDS SUNNY 73 61 64 E5 30.42S ROCKY MOUNT SUNNY 68 58 70 S5 30.43S WASHINGTON N/A 69 61 76 E3 30.43S WHITEVILLE SUNNY 70 60 70 CALM 30.41R $$ AMZ130-135-150-152-154-156-158-170-250-252-270-ANZ085-086-088-633-658-670-241400- MARINE OBSERVATIONS STATION/POSITION TIME TEMP WIND PRES WAVE SWELL AIR SEA DIR/SP/G HT/PER HT/PER (UTC) (F) (DEG/KT/KT) (MB) (FT/S) (FT/S) CHESAPEAKE LIGHT 1300 61 150/ 10/ 11 1031.3 64 E VA BEACH 1250 63 60 180/ 2/ 2 1030.6 2/ 5 2/ 5 DUCK 1300 64 64 120/ 7/ 8 1029.5 2 E DUCK 1311 63 N/A 2/ 6 OREGON INLET 1300 67 67 80/ 7/ 10 1030.4 13E OREGON INLT 1300 63 N/A 2/ 6 HATTERAS CG 1300 72 72 80/ 5/ 8 1029.8 DIAMOND BUOY 1250 74 77 80/ 4/ 6 1030.2 2/ 6 2/ 6 CAPE LOOKOUT 1300 74 60/ 5/ 5 1029.7 BEAUFORT LAB 1300 74 74 100/ 5/ 8 1029.0 27 SE WRIGHTSVLE 1300 71 76 120/ 10/ 12 N/A 5 SE WRIGHTSVLE 1208 75 76 120/ 10/ 16 1029.4 225 S CAPE HAT 1250 72 74 70/ 19/ 21 1027.9 6/ 6 2/10 41 SE CHARLESTON 1250 75 75 90/ 16/ 17 1027.3 5/ 7 2/14 $$

USA.gov is the U.S. government's official web portal to all federal, state and local government web resources and services.